Weather History for Shawbury, United Kingdom

Change the Weather History Date:

Tuesday, November 20, 2012

  Actual Average Record
Temperature  
Mean Temperature 54 °F -  
Max Temperature 59 °F 44 °F 59 °F (2012)
Min Temperature 49 °F 34 °F 21 °F (2005)
Degree Days  
Heating Degree Days 11    
Growing Degree Days 4 (Base 50)    
Moisture  
Dew Point 49 °F    
Average Humidity 83    
Maximum Humidity 94    
Minimum Humidity 69    
Precipitation  
Precipitation 0.01 in - - ()
Sea Level Pressure  
Sea Level Pressure 29.61 in    
Wind  
Wind Speed 9 mph ()    
Max Wind Speed 21 mph    
Max Gust Speed 32 mph    
Visibility 7.6 miles    
Events Rain    
Averages and records for this station are not official NWS values.
T = Trace of Precipitation, MM = Missing Value Source: Averaged Metar Reports

Daily Weather History Graph

Daily Weather History Graph

Search for Another Location

Airport:

Trip Planner

Search our weather history database for the weather conditions in past years. The results will help you decide how hot, cold, wet, or windy it might be!

Date:

Astronomy

Nov. 20, 2012 Rise Set
Actual Time 7:42 AM GMT 4:09 PM GMT
Civil Twilight 7:03 AM GMT 4:48 PM GMT
Nautical Twilight 6:21 AM GMT 5:30 PM GMT
Astronomical Twilight 5:40 AM GMT 6:11 PM GMT
Moon 12:43 PM GMT (11/20) 11:56 PM GMT (11/20)
Length of Visible Light 9h 44m
Length of Day
8h 26m
Waxing Crescent, 49% of the Moon is Illuminated
Nov 20
Waxing Crescent
Nov 20
First Quarter
Nov 28
Full
Dec 6
Last Quarter
Dec 13
New

Hourly Weather History & Observations

Time (GMT) Temp. Dew Point Humidity Pressure Visibility Wind Dir Wind Speed Gust Speed Precip Events Conditions
12:50 AM 51.8 °F 48.2 °F 88% 29.65 in 6.2 mi South 3.5 mph - N/A   Scattered Clouds
1:50 AM 51.8 °F 50.0 °F 94% 29.65 in 6.2 mi SE 5.8 mph - N/A   Mostly Cloudy
2:50 AM 52 °F 50 °F 90% 29.64 in 9 mi East 4.6 mph - -   Overcast
2:50 AM 51.8 °F 50.0 °F 94% 29.62 in 6.2 mi East 4.6 mph - N/A   Overcast
3:50 AM 53.6 °F 50.0 °F 88% 29.62 in 6.2 mi SSE 12.7 mph - N/A   Mostly Cloudy
4:50 AM 53.6 °F 50.0 °F 88% 29.59 in 6.2 mi ESE 8.1 mph - N/A   Overcast
5:50 AM 54 °F 51 °F 87% 29.58 in 12 mi SE 11.5 mph - -  
5:50 AM 53.6 °F 51.8 °F 94% 29.56 in 6.2 mi SE 11.5 mph - N/A   Mostly Cloudy
6:50 AM 53.6 °F 51.8 °F 94% 29.56 in 6.2 mi SE 10.4 mph - N/A   Mostly Cloudy
7:50 AM 55.4 °F 51.8 °F 88% 29.53 in 6.2 mi SSE 13.8 mph - N/A   Mostly Cloudy
8:50 AM 56 °F 52 °F 82% 29.54 in 12 mi SSE 12.7 mph - -   Overcast
8:50 AM 55.4 °F 51.8 °F 88% 29.53 in 6.2 mi SSE 12.7 mph - N/A   Mostly Cloudy
9:50 AM 55.4 °F 53.6 °F 94% 29.50 in 6.2 mi SSE 18.4 mph - N/A Rain Light Rain
10:50 AM 59.0 °F 53.6 °F 82% 29.50 in 6.2 mi South 20.7 mph 32.2 mph N/A   Mostly Cloudy
11:20 AM 57.2 °F 53.6 °F 88% 29.50 in 6.2 mi South 19.6 mph - N/A   Mostly Cloudy
11:50 AM 58 °F 53 °F 80% 29.53 in 25 mi South 19.6 mph - -   Partly Cloudy
11:50 AM 59.0 °F 53.6 °F 82% 29.53 in 6.2 mi South 19.6 mph - N/A   Mostly Cloudy
12:50 PM 59.0 °F 53.6 °F 82% 29.53 in 6.2 mi SSW 19.6 mph - N/A   Mostly Cloudy
1:50 PM 57.2 °F 51.8 °F 82% 29.53 in 6.2 mi SSW 16.1 mph - N/A Rain Light Rain
2:50 PM 57 °F 51 °F 74% 29.59 in 12 mi SSW 16.1 mph - - Rain Light Rain
2:50 PM 57.2 °F 51.8 °F 82% 29.56 in 6.2 mi SSW 16.1 mph - N/A   Mostly Cloudy
3:50 PM 55.4 °F 48.2 °F 77% 29.59 in 6.2 mi SW 13.8 mph - N/A   Mostly Cloudy
4:50 PM 53.6 °F 46.4 °F 77% 29.62 in 6.2 mi SSW 8.1 mph - N/A   Mostly Cloudy
5:50 PM 53 °F 46 °F 69% 29.66 in 19 mi SSW 11.5 mph - -   Scattered Clouds
5:50 PM 53.6 °F 46.4 °F 77% 29.65 in 6.2 mi SSW 11.5 mph - N/A   Overcast
6:50 PM 51.8 °F 44.6 °F 76% 29.68 in 6.2 mi SW 5.8 mph - N/A   Overcast
7:50 PM 51.8 °F 42.8 °F 71% 29.68 in 6.2 mi South 8.1 mph - N/A   Overcast
8:50 PM 51 °F 45 °F 72% 29.71 in 14 mi South 8.1 mph - -   Overcast
8:50 PM 51.8 °F 44.6 °F 76% 29.71 in 6.2 mi South 8.1 mph - N/A   Overcast
9:50 PM 50.0 °F 44.6 °F 82% 29.71 in 6.2 mi ESE 5.8 mph - N/A   Overcast
10:50 PM 50.0 °F 44.6 °F 82% 29.71 in 6.2 mi SSE 8.1 mph - N/A   Mostly Cloudy
11:50 PM 49 °F 45 °F 81% 29.74 in 11 mi SSE 6.9 mph - -   Overcast
11:50 PM 50.0 °F 44.6 °F 82% 29.71 in 6.2 mi SSE 6.9 mph - N/A   Overcast